Location: Ebenung
(48.7476°N, 8.1792°E)
Time: 13:02:27
(UTC+00:00)

Daily predictions for brighter satellites

Satellite Brightness Start Highest point End
(mag) Time Altitude Azimuth Time Altitude Azimuth Time Altitude Azimuth
CZ-2C R/B 4.2 19:18:22 10° N 19:23:22 41° WNW 19:28:26 10° SW
SL-08 ROCKET BODY 4.4 19:18:29 10° N 19:24:26 71° E 19:30:15 10° SSE
Cosmos 1408 Rocket 4.3 19:20:09 10° NNW 19:24:28 56° W 19:28:48 10° S
USA 290 3.4 19:24:00 10° N 19:26:55 29° ENE 19:29:47 10° ESE
Terra 4.0 19:26:14 10° ENE 19:27:47 11° NE 19:29:20 10° NE
Cosmos 921 Rocket 4.4 19:23:52 10° NW 19:27:51 38° WSW 19:31:44 10° S
USA 307 4.2 19:24:28 10° WNW 19:28:31 40° N 19:32:34 10° ENE
CREW DRAGON DEMO-1 DEB 3.6 19:27:01 10° W 19:29:34 44° N 19:32:09 10° ENE
Cosmos 1842 Rocket 3.9 19:25:14 10° SSW 19:29:42 73° W 19:34:13 10° N
Ariane Rocket 3.0 19:24:58 10° SSE 19:30:01 86° ENE 19:35:08 10° NNW
FALCON 9 DEB 4.0 19:29:42 10° WNW 19:32:30 32° SW 19:35:17 10° SSE
Cosmos 2263 Rocket 3.6 19:27:26 10° SW 19:32:45 45° NW 19:38:08 10° NNE
Cosmos 1606 2.6 19:31:49 10° S 19:35:34 72° E 19:39:21 10° NNE
Cosmos 1844 Rocket 2.8 19:32:08 10° S 19:37:32 53° ESE 19:42:58 10° NE
SL-4 R/B 3.0 19:36:57 10° WNW 19:41:06 43° SSW 19:45:29 10° SE
SPOT 1/Viking Rocket 4.3 19:36:35 10° SE 19:41:22 38° ENE 19:46:10 10° N
USA 308 4.1 19:38:00 10° WNW 19:42:05 40° N 19:46:09 10° ENE
Cosmos 1805 Rocket 3.5 19:37:55 10° N 19:42:16 69° E 19:46:36 10° SSE
Cosmos 1386 Rocket 4.5 19:37:57 10° N 19:43:59 68° ENE 19:50:01 10° SSE
X-37B 1.1 19:41:54 10° WSW 19:44:57 42° S 19:47:53 11° ESE
ARIANE 5 R/B 3.9 19:43:11 10° ESE 19:46:47 26° ENE 19:50:24 10° N
Cosmos 1633 Rocket 3.9 19:46:38 10° N 19:50:40 34° ENE 19:54:17 12° SE
Cosmos 1745 Rocket 4.0 19:44:58 10° N 19:51:13 78° E 19:57:23 10° SSE
ERS-2 4.3 19:50:32 10° N 19:53:46 31° WNW 19:56:59 10° SW
Cosmos 1709 Rocket 4.3 19:48:03 10° N 19:54:00 50° ENE 19:59:47 11° SSE
SPOT 3 Rocket 3.6 19:49:40 10° SSE 19:54:49 76° ENE 19:59:59 10° NNW
Cosmos 1743 Rocket 4.5 19:52:07 10° NNW 19:56:19 48° W 20:00:30 10° SSW
Resurs 1-3 4.2 19:52:43 10° S 19:57:02 58° W 20:01:24 10° NNW
Landsat 7 3.9 19:52:52 10° SSE 19:57:35 69° ENE 20:02:21 10° N
Cosmos 1844 3.7 19:52:06 10° SSW 19:57:44 63° ESE 20:03:20 10° NNE
Cosmos 968 Rocket 3.5 19:53:15 10° SSW 19:58:31 90° WSW 20:03:47 10° NNE
BREEZE-M DEB (TANK) 4.1 19:54:35 10° W 19:58:48 57° SSW 20:06:55 10° ESE
ATLAS 5 CENTAUR R/B 2.4 19:54:30 10° NW 19:59:57 75° NE 20:05:41 14° SE
ATLAS 2AS CENTAUR R/B 4.3 19:57:50 10° NW 20:04:28 31° NNE 20:10:43 10° E
BREEZE M DEB (TANK) 4.2 20:00:51 10° WSW 20:04:50 86° SSE 20:18:56 10° ENE
Cosmos 1486 Rocket 4.0 20:00:43 10° SSW 20:06:02 86° ESE 20:11:25 10° NNE
IGS 5A 3.5 20:04:37 10° SSE 20:08:46 83° WSW 20:12:57 10° NNW
Meteor 1-26 Rocket 4.5 20:03:25 10° SSE 20:08:53 49° E 20:14:13 10° NNE
Cosmos 1833 Rocket 3.7 20:04:20 10° NNW 20:09:33 36° NE 20:14:00 13° ESE
CARTOSAT-1 4.3 20:07:01 15° SE 20:10:09 38° ENE 20:14:10 10° N
Cosmos 2315 Rocket 4.3 20:05:28 10° SSE 20:11:35 52° E 20:17:44 10° NNE
S3M 4.1 20:05:54 10° S 20:12:18 90° W 20:18:41 10° N
BREEZE-M R/B 2.0 20:10:47 10° SW 20:13:14 42° SSE 20:15:12 13° E
Cosmos 1666 4.4 20:12:57 10° NNE 20:15:40 19° ENE 20:17:20 15° ESE
Cosmos 1666 Rocket 3.5 20:11:57 10° N 20:16:23 73° E 20:19:58 15° SSE
USA 215 4.3 20:12:40 10° ENE 20:18:46 43° N 20:24:51 10° WNW
Meteor 2-17 Rocket 4.5 20:13:12 10° N 20:19:23 80° E 20:25:05 12° SSE
Cosmos 1933 3.4 20:18:37 10° S 20:22:40 83° WNW 20:26:43 10° N
USA 305 3.8 20:20:16 10° WNW 20:24:24 47° NNE 20:28:33 10° E
USA 245 1.9 20:23:41 33° SE 20:24:30 64° ENE 20:26:44 10° N
Cosmos 1242 Rocket 2.5 20:24:36 10° SSW 20:28:12 85° W 20:31:47 10° N
OBJECT-B 4.0 20:27:39 10° W 20:28:19 10° W 20:28:59 10° WNW
Cosmos 1437 Rocket 4.3 20:28:41 10° SW 20:32:17 37° WNW 20:36:00 10° N
BREEZE M DEB (TANK) 1.8 20:27:45 10° W 20:32:47 84° N 20:34:07 24° E
Cosmos 773 Rocket 4.1 20:28:08 10° NNW 20:33:28 72° ENE 20:37:01 21° SSE
Resurs 01 Rocket 2.7 20:30:15 10° S 20:34:28 41° W 20:38:43 10° NNW
Spot 2 Rocket 3.4 20:34:12 19° SSE 20:37:56 84° ENE 20:43:01 10° NNW
OE (NEXTSAT) 4.5 20:35:09 10° W 20:38:32 53° S 20:39:58 30° ESE
Sich 1 4.2 20:34:30 10° NNW 20:38:35 41° W 20:42:39 10° SSW
SJ 16-02 2.7 20:38:19 20° ESE 20:38:59 21° E 20:42:19 10° NE
COSMOS 2406 3.5 20:34:30 10° NNW 20:40:06 56° ENE 20:43:43 22° SE
Cosmos 2082 Rocket 3.2 20:37:39 10° NNW 20:42:46 35° NE 20:46:28 17° ESE
USA 306 3.6 20:39:26 10° WNW 20:43:36 52° NNE 20:47:01 15° E
CZ-4C R/B 3.0 20:38:16 10° NW 20:45:20 76° NE 20:51:18 21° SE
Cosmos 1500 3.1 20:41:36 10° N 20:45:23 75° E 20:47:10 29° SSE
Cosmos 1782 2.8 20:43:16 14° SSW 20:46:44 82° WNW 20:50:45 10° N
ERS-1 Rocket 2.9 20:50:52 25° SSE 20:53:52 78° ENE 20:58:55 10° NNW
SPOT 5 3.0 20:52:52 25° SSE 20:55:51 79° ENE 21:01:08 10° NNW
H-2A R/B 4.1 20:52:45 10° NNE 20:56:42 38° E 20:57:49 32° SE
Cosmos 1503 Rocket 4.4 20:51:47 10° SW 20:56:55 64° WNW 21:02:07 10° NNE
Meteor 1-11 Rocket 4.4 20:53:55 10° N 20:59:40 46° ENE 21:02:44 26° SE
Cosmos 1271 Rocket 3.6 21:00:22 31° ESE 21:01:05 34° E 21:04:43 10° NNE
Cosmos 1151 Rocket 3.6 20:58:02 11° SSW 21:02:13 58° WNW 21:06:34 10° N
Cosmos 1777 Rocket 4.0 20:58:39 18° S 21:02:26 64° ESE 21:07:35 10° NNE
CREW DRAGON DEMO-1 DEB 3.0 21:01:33 10° WNW 21:04:10 55° NNE 21:04:38 46° ENE
Terra 1.9 21:02:23 30° SSE 21:04:40 69° ENE 21:09:25 10° N
USA 307 3.2 21:04:44 10° WNW 21:08:59 62° NNE 21:11:25 24° E
Cosmos 2278 Rocket 2.4 21:05:44 23° S 21:09:00 52° ESE 21:14:30 10° NE
Cosmos 1340 Rocket 4.4 21:09:49 10° NNE 21:13:06 23° ENE 21:14:05 21° E
CZ-4B DEB 4.1 21:16:05 62° SSE 21:16:35 86° ENE 21:19:49 10° NNW
Cosmos 1515 Rocket 3.5 21:17:35 28° SSW 21:19:54 83° W 21:24:20 10° N
Cosmos 1544 4.4 21:17:32 10° NNE 21:20:37 26° ENE 21:20:56 25° E
X-37B 2.4 21:18:29 10° WSW 21:20:09 21° SW 21:20:09 21° SW
Cosmos 2084 3.2 21:17:53 11° SW 21:21:50 81° SE 21:26:07 10° NE
USA 308 3.1 21:18:13 10° WNW 21:22:31 71° NNE 21:24:24 32° E
Cosmos 1869 Rocket 3.9 21:18:35 10° N 21:22:48 49° ENE 21:23:54 39° ESE
Cosmos 1536 3.5 21:19:09 10° N 21:23:02 41° ENE 21:23:48 37° ESE
ARIANE 5 R/B 3.7 21:20:40 20° SSW 21:23:06 37° W 21:27:09 10° NNW
Meteor 1-10 Rocket 4.1 21:22:59 30° S 21:25:50 73° E 21:31:29 10° NNE
Cosmos 1437 4.1 21:25:46 22° WSW 21:26:53 30° WNW 21:29:29 10° N
Cosmos 2154 Rocket 4.1 21:23:47 10° N 21:30:08 69° ENE 21:33:03 33° SSE
Cosmos 1943 Rocket 3.9 21:30:26 15° E 21:30:26 15° E 21:33:24 10° ENE
Cosmos 1812 3.3 21:31:31 27° SW 21:33:19 52° WNW 21:37:08 10° N
Cosmos 2184 Rocket 4.0 21:31:54 10° NNW 21:38:09 77° W 21:41:19 31° S
ALOS 2 4.4 21:38:41 18° E 21:40:02 21° ENE 21:43:18 10° NNE
NOSS 3-4 (A) 3.8 21:36:08 10° NW 21:43:05 88° NE 21:47:03 32° SE
Cosmos 1707 Rocket 4.4 21:42:54 33° E 21:43:07 33° E 21:47:05 10° NNE
NOSS 3-4 (C) 3.8 21:36:14 10° NW 21:43:10 87° NE 21:47:10 32° SE
ATLAS 5 CENTAUR R/B 3.8 21:39:38 10° WNW 21:44:23 27° WSW 21:47:13 20° SSW
Cosmos 2074 Rocket 4.2 21:39:50 10° NNW 21:46:05 66° W 21:49:23 29° SSW
Cosmos 1666 3.7 21:47:55 10° NNW 21:51:22 36° W 21:52:11 32° WSW
Cosmos 2112 Rocket 4.4 21:46:44 10° NNW 21:52:00 55° ENE 21:53:50 37° ESE
NOSS 3-3 (A) 4.4 21:47:07 10° SW 21:52:56 64° NW 21:59:42 10° NE
NOSS 3-3 (C) 4.4 21:47:14 10° SW 21:53:04 64° NW 21:59:48 10° NE
Cosmos 1833 Rocket 3.3 21:48:14 10° NW 21:53:36 46° WSW 21:55:42 32° SSW
Nadezhda 1 Rocket 3.9 21:51:52 34° S 21:54:53 86° E 22:01:11 10° N
Cosmos 1238 Rocket 4.4 21:49:38 10° N 21:55:49 46° ENE 21:57:51 34° ESE
Meteor 2-12 Rocket 4.5 21:50:23 10° NNW 21:56:28 73° W 21:59:02 36° S
Cosmos 1743 3.0 21:52:59 10° N 21:56:45 50° ENE 21:56:52 50° E
ATLAS 2AS CENTAUR R/B 2.9 21:49:16 10° NW 21:56:45 70° NE 22:00:31 30° ESE
BREEZE-M DEB (TANK) 4.2 21:57:49 10° W 21:57:58 11° W 21:57:58 11° W
USA 215 3.7 21:55:02 11° E 22:01:12 61° NNE 22:07:37 10° NW
BREEZE-M DEB (TANK) 3.7 21:55:53 10° W 22:02:52 51° NNW 22:04:40 19° ENE
Cosmos 2297 4.3 22:03:58 37° ESE 22:04:30 38° ESE 22:09:42 10° NE
USA 305 2.8 22:00:17 10° WNW 22:04:33 68° SSW 22:04:41 68° SSW
Cosmos 2181 Rocket 4.5 22:07:22 36° SE 22:09:01 44° E 22:14:48 10° NNE
Cosmos 158 Rocket 4.3 22:09:46 10° NNW 22:14:28 48° WSW 22:15:27 42° SW
Cosmos 1733 Rocket 3.2 22:11:23 10° N 22:15:41 58° ENE 22:16:02 56° E
SJ 16-02 2.2 22:15:14 28° WSW 22:17:15 47° WNW 22:21:34 10° NNE
Cosmos 2228 Rocket 3.8 22:17:34 35° SW 22:18:56 48° WNW 22:23:17 10° N
Cosmos 1680 Rocket 3.5 22:14:53 10° NNW 22:20:14 80° WSW 22:21:27 54° S
Cosmos 2341 Rocket 4.0 22:14:29 10° N 22:20:57 84° E 22:23:08 45° SSE
Meteor 1-27 Rocket 4.0 22:18:37 34° SSW 22:21:12 68° WNW 22:27:07 10° N
Cosmos 2366 rocket 4.2 22:16:03 10° N 22:22:07 57° ENE 22:24:07 40° SE
USA 306 3.3 22:19:28 10° WNW 22:23:05 49° WSW 22:23:05 49° WSW
Cosmos 1937 Rocket 3.7 22:24:06 47° ESE 22:24:26 48° ESE 22:29:23 10° NNE
Cosmos 1818 4.0 22:20:03 10° NNW 22:25:29 57° NE 22:27:40 34° ESE
Cosmos 2082 Rocket 2.7 22:21:39 10° NW 22:27:02 47° WSW 22:28:19 40° SSW
CZ-4C R/B 3.9 22:27:12 10° NW 22:33:43 34° WSW 22:36:28 28° SSW
Gbstr 26 Del rocket 4.1 22:27:41 10° WNW 22:35:04 78° NNE 22:40:00 16° E
ERBS 3.9 22:33:30 10° NW 22:36:32 31° NNE 22:37:05 29° NE
Cosmos 2218 Rocket 4.0 22:33:53 10° N 22:40:11 78° E 22:42:06 48° SSE
Meteor 1-19 Rocket 4.1 22:40:49 55° SE 22:41:44 66° E 22:47:06 10° NNE
Terra 3.9 22:41:15 14° WSW 22:42:55 16° W 22:45:55 10° NW
Okean 1 3.3 22:46:34 81° N 22:46:34 81° N 22:50:24 10° N
Cosmos 489 Rocket 4.5 22:41:08 10° NNW 22:47:24 78° ENE 22:49:22 46° SE
USA 307 4.2 22:44:53 10° WNW 22:47:30 30° W 22:47:30 30° W
Cosmos 1340 Rocket 3.8 22:45:53 10° NNW 22:49:39 36° W 22:49:40 36° W
Cosmos 1461 4.4 22:53:28 29° E 22:53:28 29° E 22:56:33 10° NE
Cosmos 2278 Rocket 3.7 22:48:16 10° WSW 22:53:20 33° NW 22:58:26 10° NNE
Spot 4 4.2 22:53:27 48° SW 22:54:03 51° W 22:58:49 10° NNW
Cosmos 1515 4.1 22:55:28 56° WNW 22:55:28 56° WNW 22:58:58 10° N
Cosmos 1862 Rocket 3.4 22:57:00 79° WSW 22:57:06 80° W 23:01:28 10° N
Cosmos 1703 Rocket 4.4 22:57:18 37° E 22:57:18 37° E 23:01:14 10° NNE
Cosmos 1898 Rocket 3.7 22:57:39 46° SW 22:59:08 69° WNW 23:04:29 10° NNE
Cosmos 2369 Rocket 2.6 23:03:27 43° ESE 23:03:52 44° ESE 23:09:12 10° NE
COBE Rocket 3.8 23:07:04 67° S 23:07:46 85° WSW 23:12:56 10° NNW
RESURS DK-1 3.7 23:05:01 10° NNW 23:08:49 33° NE 23:09:53 29° E
Meteor 2-9 Rocket 4.4 23:03:37 10° NNW 23:09:23 64° W 23:10:35 52° SSW
Gblst 52 Del rocket 4.4 23:02:48 10° WNW 23:09:41 85° NNE 23:14:41 15° ESE
SL-8 Rocket 4.3 23:03:34 10° NNW 23:09:45 57° W 23:11:34 43° SW
Cosmos 1975 3.1 23:08:37 10° NNW 23:12:12 61° WNW 23:12:12 61° WNW
Cosmos 1943 Rocket 2.1 23:11:55 56° SSW 23:13:10 89° ESE 23:18:48 10° NNE
SL-27 R/B 4.3 23:10:37 10° N 23:13:17 23° ENE 23:13:17 23° ENE
Cosmos 2084 Rocket 3.5 23:09:25 10° NW 23:13:20 70° W 23:13:20 70° W
SAR-Lupe-2 4.1 23:11:30 10° N 23:14:31 57° NNW 23:14:31 57° NNW
ALOS 2 3.0 23:16:05 51° W 23:16:05 51° W 23:20:21 10° NNW
SL-08 R/B 4.4 23:11:41 10° N 23:17:54 86° E 23:19:37 51° SSE
PSLV R/B 4.5 23:14:25 10° NNE 23:18:26 36° E 23:18:26 36° E
Cosmos 44 3.8 23:15:31 10° NW 23:20:44 48° WSW 23:20:48 48° WSW
DNEPR-1 R/B 3.9 23:19:56 57° SSW 23:21:07 86° SE 23:26:05 10° NE
Meteor 2-4 Rocket 3.7 23:20:31 58° S 23:21:44 82° E 23:27:25 10° NNE
Okean 3 4.3 23:28:08 40° E 23:28:08 40° E 23:32:01 10° NNE
EO 1 Del DPAF 4.4 23:24:48 10° NNE 23:27:38 34° ENE 23:27:38 34° ENE
Okean 1-7 2.9 23:30:15 77° ENE 23:30:15 77° ENE 23:34:25 10° NNE
ATLAS CENTAUR R/B 3.6 23:32:11 13° E 23:32:11 13° E 23:33:03 10° ENE
Cosmos 372 Rocket 3.8 23:30:36 66° SW 23:31:20 85° WNW 23:36:29 10° NNE
Helios 1A 4.5 23:31:38 26° E 23:32:40 29° ENE 23:36:15 10° N
Sich 1 Rocket 4.4 23:30:26 10° N 23:34:49 42° ENE 23:35:34 39° E
Cosmos 1125 Rocket 4.2 23:35:51 39° ESE 23:36:18 39° ESE 23:41:09 10° NE
SeaSat 1 2.3 23:32:52 10° NNE 23:37:50 73° ESE 23:38:19 67° SSE
Cosmos 494 Rocket 4.2 23:33:40 10° NNW 23:38:52 63° ENE 23:40:13 46° ESE
Cosmos 1656 Rocket 3.8 23:39:04 49° SE 23:39:41 52° ESE 23:45:02 10° NE
Cosmos 2242 Rocket 3.5 23:40:22 75° W 23:40:29 75° W 23:44:58 10° N
Cosmos 2239 Rocket 4.5 23:36:37 10° N 23:42:57 83° E 23:44:52 48° SSE
USA 215 3.2 23:42:20 45° SSE 23:44:14 61° SW 23:50:44 10° WNW
Cosmos 1833 4.2 23:39:57 10° NNW 23:45:44 80° ENE 23:47:33 46° SE
ATLAS 2AS CENTAUR R/B 3.5 23:40:55 10° NW 23:47:10 32° WSW 23:47:56 31° SW
CZ-2D R/B 4.1 23:48:15 10° NE 23:51:53 18° E 23:53:55 15° ESE
